Volver al catálogo

STARLINK-11172

ActivoComunicacionesVLEO
NORAD 60193·PAYLOAD·🇺🇸 United States

Lanzado Jul 3, 2024 desde Cape Canaveral Space Force Station

Loading…

Próximos Pases (próximas 24 horas)

TLE

ActualizadoSource: CelesTrak SupGP

Época: Sep 14, 2026, 21:28 UTC

1 60193C 24124L   26257.89493056 -.00053453  00000+0 -44033-3 0  2573
2 60193  53.1568 308.6250 0001271  89.2798 130.2116 15.69734580    10

Sigue STARLINK-11172 en tiempo real con AllMySat

Download on the App Store